Weather History for Port Huron, MI

Change the Weather History Date:

Saturday, January 12, 2013

  Actual Average (KMTC) Record (KMTC)
Temperature  
Mean Temperature 50 °F -  
Max Temperature 57 °F 28 °F 59 °F (2013)
Min Temperature 44 °F 15 °F 0 °F (1977)
Degree Days  
Heating Degree Days 14    
Moisture  
Dew Point 46 °F    
Average Humidity 90    
Maximum Humidity 100    
Minimum Humidity 77    
Precipitation  
Precipitation 0.00 in - - ()
Sea Level Pressure  
Sea Level Pressure 29.89 in    
Wind  
Wind Speed 7 mph (SSW)    
Max Wind Speed 13 mph    
Max Gust Speed 18 mph    
Visibility 7 miles    
Events Fog    
Averages and records for this station are not official NWS values.
T = Trace of Precipitation, MM = Missing Value Source: NWS Daily Summary

Daily Weather History Graph

Daily Weather History Graph

Search for Another Location

Airport:

Trip Planner

Search our weather history database for the weather conditions in past years. The results will help you decide how hot, cold, wet, or windy it might be!

Date:

Astronomy

Jan. 12, 2013 Rise Set
Actual Time 7:59 AM EST 5:18 PM EST
Civil Twilight 7:27 AM EST 5:49 PM EST
Nautical Twilight 6:52 AM EST 6:24 PM EST
Astronomical Twilight 6:18 AM EST 6:58 PM EST
Moon 8:15 AM EST (1/12) 6:48 PM EST (1/12)
Length of Visible Light 10h 21m
Length of Day
9h 18m
New Moon, 1% of the Moon is Illuminated
Jan 12
New Moon
Jan 18
First Quarter
Jan 26
Full
Feb 3
Last Quarter
Feb 10
New

Hourly Weather History & Observations

Time (EST) Temp. Windchill Dew Point Humidity Pressure Visibility Wind Dir Wind Speed Gust Speed Precip Events Conditions
12:18 AM 46.4 °F 42.4 °F 44.6 °F 93% 29.86 in 7.0 mi South 8.1 mph - N/A   Clear
12:38 AM 46.4 °F 42.9 °F 44.6 °F 93% 29.86 in 5.0 mi South 6.9 mph - N/A   Clear
12:57 AM 46.4 °F 43.5 °F 44.6 °F 93% 29.86 in 5.0 mi SSW 5.8 mph - N/A   Clear
1:18 AM 46.4 °F 42.9 °F 44.6 °F 93% 29.86 in 5.0 mi South 6.9 mph - N/A   Clear
1:37 AM 44.6 °F 40.7 °F 44.6 °F 100% 29.86 in 5.0 mi South 6.9 mph - N/A   Clear
1:57 AM 44.6 °F 41.4 °F 44.6 °F 100% 29.85 in 5.0 mi South 5.8 mph - N/A   Clear
2:18 AM 46.4 °F 41.9 °F 44.6 °F 93% 29.85 in 5.0 mi South 9.2 mph - N/A   Clear
2:37 AM 46.4 °F 41.9 °F 44.6 °F 93% 29.85 in 7.0 mi South 9.2 mph - N/A   Clear
2:58 AM 46.4 °F 41.9 °F 44.6 °F 93% 29.85 in 7.0 mi South 9.2 mph - N/A   Clear
3:17 AM 46.4 °F 42.4 °F 44.6 °F 93% 29.86 in 7.0 mi South 8.1 mph - N/A   Clear
3:37 AM 44.6 °F 40.7 °F 44.6 °F 100% 29.86 in 7.0 mi South 6.9 mph - N/A   Clear
3:58 AM 46.4 °F 42.4 °F 44.6 °F 93% 29.86 in 7.0 mi South 8.1 mph - N/A   Clear
4:17 AM 46.4 °F 42.9 °F 44.6 °F 93% 29.86 in 7.0 mi SSW 6.9 mph - N/A   Clear
4:37 AM 44.6 °F 40.7 °F 42.8 °F 93% 29.85 in 7.0 mi South 6.9 mph - N/A   Clear
4:58 AM 44.6 °F 40.7 °F 42.8 °F 93% 29.85 in 5.0 mi South 6.9 mph - N/A   Clear
5:17 AM 44.6 °F 39.7 °F 42.8 °F 93% 29.84 in 7.0 mi South 9.2 mph - N/A   Clear
5:38 AM 44.6 °F 40.2 °F 42.8 °F 93% 29.84 in 7.0 mi South 8.1 mph - N/A   Clear
5:58 AM 46.4 °F 42.4 °F 42.8 °F 87% 29.84 in 7.0 mi South 8.1 mph - N/A   Clear
6:17 AM 46.4 °F 41.1 °F 42.8 °F 87% 29.86 in 7.0 mi SSW 11.5 mph - N/A   Clear
6:38 AM 46.4 °F 41.9 °F 42.8 °F 87% 29.84 in 7.0 mi South 9.2 mph - N/A   Clear
6:57 AM 46.4 °F 41.9 °F 42.8 °F 87% 29.85 in 7.0 mi South 9.2 mph - N/A   Clear
7:18 AM 46.4 °F 41.9 °F 42.8 °F 87% 29.86 in 10.0 mi SSW 9.2 mph - N/A   Clear
7:37 AM 44.6 °F 40.2 °F 42.8 °F 93% 29.87 in 7.0 mi SSW 8.1 mph - N/A   Clear
7:57 AM 44.6 °F 40.2 °F 42.8 °F 93% 29.88 in 7.0 mi SSW 8.1 mph - N/A   Clear
8:18 AM 46.4 °F 42.4 °F 42.8 °F 87% 29.88 in 7.0 mi SSW 8.1 mph - N/A   Clear
8:37 AM 44.6 °F 41.4 °F 42.8 °F 93% 29.89 in 7.0 mi South 5.8 mph - N/A   Clear
8:58 AM 46.4 °F 42.9 °F 42.8 °F 87% 29.89 in 5.0 mi South 6.9 mph - N/A   Clear
9:17 AM 46.4 °F 42.4 °F 44.6 °F 93% 29.90 in 7.0 mi South 8.1 mph - N/A   Clear
9:37 AM 46.4 °F 42.9 °F 44.6 °F 93% 29.91 in 7.0 mi SSW 6.9 mph - N/A   Clear
9:58 AM 46.4 °F 45.2 °F 44.6 °F 93% 29.91 in 7.0 mi SSW 3.5 mph - N/A   Clear
10:17 AM 48.2 °F - 44.6 °F 87% 29.91 in 10.0 mi SSW 5.8 mph - N/A   Clear
10:38 AM 50.0 °F - 46.4 °F 87% 29.92 in 10.0 mi SSW 6.9 mph - N/A   Clear
10:58 AM 50.0 °F - 46.4 °F 87% 29.91 in 10.0 mi South 8.1 mph - N/A   Clear
11:17 AM 50.0 °F - 46.4 °F 87% 29.90 in 10.0 mi South 9.2 mph - N/A   Clear
11:38 AM 51.8 °F - 46.4 °F 82% 29.89 in 10.0 mi SSW 8.1 mph - N/A   Clear
11:57 AM 51.8 °F - 48.2 °F 88% 29.89 in 10.0 mi SSW 8.1 mph - N/A   Clear
12:18 PM 53.6 °F - 48.2 °F 82% 29.89 in 10.0 mi SSW 9.2 mph - N/A   Clear
12:38 PM 53.6 °F - 48.2 °F 82% 29.88 in 10.0 mi SSW 8.1 mph - N/A   Clear
1:18 PM 55.4 °F - 48.2 °F 77% 29.87 in 10.0 mi South 12.7 mph - N/A   Clear
1:37 PM 55.4 °F - 48.2 °F 77% 29.87 in 10.0 mi SSW 9.2 mph - N/A   Clear
1:58 PM 55.4 °F - 48.2 °F 77% 29.88 in 10.0 mi SSW 10.4 mph - N/A   Clear
2:18 PM 55.4 °F - 48.2 °F 77% 29.89 in 10.0 mi South 9.2 mph - N/A   Clear
2:37 PM 55.4 °F - 48.2 °F 77% 29.89 in 10.0 mi South 12.7 mph - N/A   Clear
2:58 PM 57.2 °F - 50.0 °F 77% 29.90 in 10.0 mi SSW 10.4 mph - N/A   Clear
3:17 PM 57.2 °F - 50.0 °F 77% 29.91 in 10.0 mi SSW 12.7 mph 18.4 mph N/A   Clear
3:37 PM 57.2 °F - 50.0 °F 77% 29.91 in 10.0 mi SSW 9.2 mph 17.3 mph N/A   Clear
3:58 PM 57.2 °F - 50.0 °F 77% 29.92 in 10.0 mi South 8.1 mph - N/A   Clear
4:17 PM 55.4 °F - 50.0 °F 82% 29.91 in 10.0 mi South 10.4 mph - N/A   Clear
4:38 PM 53.6 °F - 50.0 °F 88% 29.91 in 10.0 mi South 9.2 mph - N/A   Clear
4:58 PM 53.6 °F - 50.0 °F 88% 29.92 in 10.0 mi SSW 9.2 mph - N/A   Clear
5:18 PM 53.6 °F - 48.2 °F 82% 29.92 in 10.0 mi South 9.2 mph - N/A   Clear
5:38 PM 51.8 °F - 48.2 °F 88% 29.93 in 10.0 mi SSW 8.1 mph - N/A   Clear
5:57 PM 53.6 °F - 50.0 °F 88% 29.93 in 10.0 mi SSW 8.1 mph - N/A   Clear
6:18 PM 53.6 °F - 50.0 °F 88% 29.93 in 10.0 mi SSW 6.9 mph - N/A   Clear
6:37 PM 51.8 °F - 50.0 °F 94% 29.93 in 10.0 mi SSW 8.1 mph - N/A   Clear
6:57 PM 51.8 °F - 50.0 °F 94% 29.92 in 10.0 mi South 5.8 mph - N/A   Clear
7:18 PM 51.8 °F - 50.0 °F 94% 29.92 in 10.0 mi South 4.6 mph - N/A   Clear
7:37 PM 51.8 °F - 50.0 °F 94% 29.93 in 7.0 mi South 6.9 mph - N/A   Clear
7:58 PM 51.8 °F - 50.0 °F 94% 29.94 in 7.0 mi SSW 5.8 mph - N/A   Clear
8:18 PM 51.8 °F - 50.0 °F 94% 29.92 in 7.0 mi South 3.5 mph - N/A   Clear
8:37 PM 50.0 °F - 48.2 °F 94% 29.92 in 5.0 mi Calm Calm - N/A   Clear
8:58 PM 50.0 °F - 48.2 °F 94% 29.92 in 3.0 mi Calm Calm - N/A   Clear
9:17 PM 48.2 °F - 46.4 °F 93% 29.92 in 1.0 mi Calm Calm - N/A   Mist
9:37 PM 46.4 °F - 46.4 °F 100% 29.92 in 0.5 mi Calm Calm - N/A Fog Fog
9:58 PM 46.4 °F - 44.6 °F 93% 29.92 in 0.2 mi Calm Calm - N/A Fog Fog
10:17 PM 46.4 °F - 44.6 °F 93% 29.92 in 0.2 mi Calm Calm - N/A Fog Fog
10:38 PM 44.6 °F - 44.6 °F 100% 29.93 in 0.2 mi Calm Calm - N/A Fog Fog
10:58 PM 46.4 °F - 46.4 °F 100% 29.91 in 0.2 mi Calm Calm - N/A Fog Fog
11:17 PM 46.4 °F 45.2 °F 46.4 °F 100% 29.90 in 0.2 mi ENE 3.5 mph - N/A Fog Fog
11:38 PM 46.4 °F - 44.6 °F 93% 29.89 in 0.2 mi Calm Calm - N/A Fog Fog
11:57 PM 48.2 °F - 48.2 °F 100% 29.88 in 0.2 mi North 4.6 mph - N/A Fog Fog